Location: Moy Burn
(57.3833°N, 4.0667°W)
Time: 09:57:27
(UTC+00:00)

Cosmos 2344 - Pass Details

Date: 08 August 2020
Orbit: 1247 x 2995 km, 63.3° (Epoch: 21 September)

Event Time Altitude Azimuth Distance (km) Brightness Sun altitude
Rises 20:50:10 0° 267° (W) 4,205 7.1 -4.8°
Reaches altitude 10° 20:52:49 10° 272° (W) 3,281 6.6 -5.0°
Maximum altitude 21:00:28 61° 353° (N) 1,607 4.4 -5.8°
Drops below altitude 10° 21:10:11 10° 73° (ENE) 4,114 6.0 -6.8°
Sets 21:13:55 0° 77° (ENE) 5,351 6.5 -7.1°
